Location: Unspecified
(0.0000°N, 0.0000°E)
Time: 11:08:21
(UTC+00:00)

STARLINK-1063 - Pass Details

Date: 15 January 2020
Orbit: 549 x 550 km, 53.0° (Epoch: 04 August)

Event Time Altitude Azimuth Distance (km) Brightness Sun altitude
Rises 19:37:06 0° 322° (NW) 2,677 7.3 -20.4°
Reaches altitude 10° 19:39:19 10° 320° (NW) 1,793 6.4 -20.9°
Maximum altitude 19:43:22 70° 236° (SW) 578 3.8 -21.8°
Enters shadow 19:47:02 13° 153° (SSE) 1,639 6.0 -22.7°
